Regional Weather Roundup
Issued by NWS

Home | Current Version | Previous Version | Text Only | Print | Product List | Glossary Off
Versions: 1 2 3 4 5 6 7 8 9 10 11 12 13 14 15 16 17 18 19 20 21 22 23 24 25 26 27 28 29 30 31 32 33 34 35 36 37 38 39 40 41 42 43 44 45 46 47 48 49 50

000
ASUS43 KDMX 270607
RWRIA

WEATHER ROUNDUP FOR IOWA
NATIONAL WEATHER SERVICE DES MOINES IA
100 AM CDT WED MAY 27 2015

NOTE: "FAIR" INDICATES FEW OR NO CLOUDS BELOW 12,000 FEET WITH NO
SIGNIFICANT WEATHER AND/OR OBSTRUCTIONS TO VISIBILITY.

* - THESE STATIONS ARE NOT NWS STATIONS...THUS NOT UNDER NWS
QUALITY CONTROL.  THEY ALSO DO NOT REPORT WEATHER SUCH
AS PRECIPITATION OR FOG.

IAZ001>003-012>014-020>022-031>034-043>046-270700-
   NORTHWEST IOWA

CITY           SKY/WX    TMP DP  RH WIND       PRES   REMARKS
CARROLL *      CLOUDY    57  57 100 W7        29.90S
CHEROKEE *     MOCLDY    55  55  99 SW3       29.91S
DENISON *      PTCLDY    55  55 100 W5        29.90S
LE MARS *      CLEAR     55  55 100 CALM      29.93R
ORANGE CITY *  PTCLDY    54  54 100 CALM      29.91S
SHELDON *      PTCLDY    57  55  94 W5        29.89S
SIOUX CITY     PTCLDY    54  52  93 SW5       29.92R
6HR MIN TEMP:  54; 6HR MAX TEMP:  68;

SPENCER        CLOUDY    57  55  93 W3        29.89S
6HR MIN TEMP:  57; 6HR MAX TEMP:  60; 6HR PCP: TRACE;

STORM LAKE *   CLOUDY    57  55  94 W10       29.91S
$$

IAZ055>058-069>071-079>083-090>094-270700-
   SOUTHWEST IOWA

CITY           SKY/WX    TMP DP  RH WIND       PRES   REMARKS
ATLANTIC *     MOCLDY    59  55  88 W6        29.92S
AUDUBON *      MOCLDY    57  54  88 W3        29.92S
COUNCIL BLFS * CLEAR     59  59 100 CALM      29.94S
CRESTON *      CLOUDY    59  59 100 NW9       29.92R
HARLAN  *      PTCLDY    55  55 100 CALM      29.96S
LAMONI         CLEAR     62  57  83 SW8       29.92S
6HR MIN TEMP:  62; 6HR MAX TEMP:  71;

RED OAK *      CLEAR     59  57  94 NW5       29.94R
SHENANDOAH *   CLEAR     59  57  94 W5        29.95R
$$

IAZ047>049-059>061-072>074-084-270700-
   CENTRAL IOWA

CITY           SKY/WX    TMP DP  RH WIND       PRES   REMARKS
AMES           CLOUDY    60  57  89 NW9       29.88R
6HR MIN TEMP:  60; 6HR MAX TEMP:  65; 6HR PCP:  0.15;

ANKENY *       CLOUDY    63  61  94 W5        29.88S
CHARITON *     PTCLDY    59  57  94 SW6       29.90S
DES MOINES     CLOUDY    62  58  86 W7        29.88S
6HR MIN TEMP:  62; 6HR MAX TEMP:  69; 6HR PCP: TRACE;

GRINNELL*      CLOUDY    61  59  94 W5        29.88S
KNOXVILLE *    MOCLDY    61  57  88 SW6       29.88S
MARSHALLTOWN   CLOUDY    61  59  93 W7        29.86S
6HR MIN TEMP:  58; 6HR MAX TEMP:  69; 6HR PCP:  0.18;

PELLA *        MOCLDY    61  61  99 SW6       29.89F FOG
PERRY *        CLOUDY    60  58  92 W6        29.89S
$$

IAZ004>006-015-016-023>025-035-036-270700-
   NORTH CENTRAL IOWA

CITY           SKY/WX    TMP DP  RH WIND       PRES   REMARKS
ALGONA *       CLOUDY    57  57 100 W5        29.89S
CLARION *      CLOUDY    59 N/A N/A NW8       29.88S
ESTHERVILLE    CLOUDY    56  55  97 W7        29.88R
6HR MIN TEMP:  56; 6HR MAX TEMP:  60; 6HR PCP: TRACE;

FORT DODGE *   CLOUDY    59  55  88 W3        29.90R
MASON CITY     CLOUDY    58  56  93 W8        29.88S
6HR MIN TEMP:  57; 6HR MAX TEMP:  63; 6HR PCP: TRACE;

FOREST CITY *  CLOUDY    55  55 100 W3        29.87S
IOWA FALLS *   CLOUDY    59  57  94 W7        29.89R
$$

IAZ007>011-017>019-026>030-037>042-050>054-066-270700-
   NORTHEAST IOWA

CITY           SKY/WX    TMP DP  RH WIND       PRES   REMARKS
CEDAR RAPIDS   MOCLDY    61  61 100 SW9       29.84S
6HR MIN TEMP:  61; 6HR MAX TEMP:  68;

CHARLES CITY * CLOUDY    59  59 100 NW13      29.86S
CLINTON *      PTCLDY    61  57  88 SW9       29.85F
DECORAH *      CLOUDY    59  59 100 VRB6      29.83R
DUBUQUE        MOCLDY    60  58  92 SW3       29.83S
6HR MIN TEMP:  59; 6HR MAX TEMP:  66;

MONTICELLO *   CLOUDY    63  63 100 W7        29.83S
OELWEIN *      CLOUDY    61  59  94 W7        29.84F
WATERLOO       CLOUDY    61  59  93 W8        29.84S
6HR MIN TEMP:  61; 6HR MAX TEMP:  68;

$$

IAZ064-065-067-068-078-270700-
   EAST CENTRAL IOWA

CITY           SKY/WX    TMP DP  RH WIND       PRES   REMARKS
DAVENPORT      CLEAR     64  60  87 SW9       29.86R
6HR MIN TEMP:  64; 6HR MAX TEMP:  73; 6HR PCP: TRACE;

IOWA CITY      CLEAR     62  59  90 SW7       29.87S
6HR MIN TEMP:  62; 6HR MAX TEMP:  71; 6HR PCP:  0.04;

MT. PLEASANT * PTCLDY    61  61  98 SW6       29.89F
MUSCATINE *    CLEAR     64  61  88 SW10      29.87S
QUAD CITIES    CLEAR     65  60  84 SW8       29.85S
6HR MIN TEMP:  64; 6HR MAX TEMP:  73; 6HR PCP:  0.05;

$$

IAZ062-063-075>077-085>089-095>099-270700-
   SOUTHEAST IOWA

CITY           SKY/WX    TMP DP  RH WIND       PRES   REMARKS
BURLINGTON     PTCLDY    64  61  90 SW7       29.89S
6HR MIN TEMP:  64; 6HR MAX TEMP:  74; 6HR PCP:  0.01;

FAIRFIELD *    CLEAR     63  59  88 W8        29.89S
FORT MADISON * CLEAR     64  61  88 CALM      29.90F
KEOKUK *       CLEAR     64  61  88 SW7       29.90S
OSKALOOSA *      N/A     61  58  91 W9        29.90R
CENTERVILLE *  CLEAR     59  59 100 SW6       29.93S
OTTUMWA        CLEAR     61  60  97 SW8       29.89S
6HR MIN TEMP:  61; 6HR MAX TEMP:  68;

WASHINGTON *   CLEAR     63  61  94 W8        29.89S
$$

ABBREVIATIONS USED IN REMARKS
   TC - TEMPERATURES IN CELSIUS
  WCI - WIND CHILL INDEX
   HX - HEAT INDEX
  VSB - VISIBILITY
$$



USA.gov is the U.S. government's official web portal to all federal, state and local government web resources and services.